Location: Saddleback Butte
(34.6776°N, 117.8050°W)
Time: 06:22:21
(UTC-07:00)

Iridium 35 - Visible Passes

Search period start: 31 July 2015 00:00
Search period end: 10 August 2015 00:00
Orbit: 776 x 779 km, 86.4° (Epoch: 30 July)

Date Brightness Start Highest point End Pass type
(mag) Time Alt. Az. Time Alt. Az. Time Alt. Az.
31 Jul 6.2 21:11:13 10° SSW 21:16:09 43° W 21:21:06 10° NNW visible
01 Aug 5.1 20:37:22 10° S 20:42:34 84° W 20:47:49 10° N visible
02 Aug 7.8 21:47:07 10° WSW 21:50:14 15° WNW 21:53:06 10° NW visible
03 Aug 7.0 21:11:51 10° SW 21:16:22 29° W 21:20:51 10° NNW visible
04 Aug 5.8 20:37:36 10° SSW 20:42:42 56° W 20:47:49 10° N visible
06 Aug 7.7 21:12:50 10° SW 21:16:40 20° WNW 21:20:19 10° NNW visible
07 Aug 6.7 20:38:03 10° SSW 20:42:53 37° W 20:47:41 10° NNW visible
08 Aug 5.4 20:04:04 10° S 20:09:15 74° W 20:14:29 10° N visible
09 Aug 8.1 21:14:26 10° WSW 21:17:01 13° WNW 21:19:16 10° NW visible
